{"data":{"norad_id":68948,"epoch":"2026-09-19T15:16:37.528608Z","epoch_age_seconds":93917,"freshness":"FRESH","line1":"1 68948U 26098AF  26262.63654547  .00000963  00000+0  15545-3 0  9998","line2":"2 68948  51.9015   7.9907 0000933 102.9495 257.1572 14.79910933 21362","mean_motion":14.79910933,"eccentricity":9.33e-5,"inclination_deg":51.9015,"raan_deg":7.9907,"arg_perigee_deg":102.9495,"mean_anomaly_deg":257.1572,"bstar":0.00015545,"rev_number":2136,"period_min":97.303153040494,"perigee_km":628.9514677357,"apogee_km":630.25911244703,"semimajor_km":7007.7422900914,"source":"CELESTRAK","updated_at":"2026-09-20T09:00:24.585629Z"}}